Location: Bideford
(40.8667°S, 175.8667°E)
Time: 14:31:57
(UTC+00:00)

Daily predictions for brighter satellites

Satellite Brightness Start Highest point End
(mag) Time Altitude Azimuth Time Altitude Azimuth Time Altitude Azimuth
USA 59 Rocket 3.6 14:45:55 25° SSE 14:45:55 25° SSE 14:49:46 10° SSE
ATLAS 5 CENTAUR R/B 3.9 16:15:23 25° SE 16:15:23 25° SE 16:18:34 10° E
Cosmos 2219 Rocket 3.5 16:18:25 36° ESE 16:18:25 36° ESE 16:22:02 10° SE
Cosmos 2360 Rocket 4.2 16:33:22 18° SSE 16:33:22 18° SSE 16:34:46 10° SSE
USA 59 Rocket 3.3 16:32:29 24° SSW 16:32:38 24° SSW 16:40:33 10° SSE
COSMOS 2428 3.9 16:42:35 10° N 16:47:56 41° ENE 16:53:20 10° SE
Meteor 2-1 Rocket 4.3 16:52:30 10° N 16:58:19 79° E 17:04:05 10° SSE
Gbstr 26 Del rocket 3.7 17:03:39 55° SSE 17:03:44 55° SSE 17:09:05 10° ENE
Cosmos 2322 Rocket 4.2 17:14:33 15° S 17:14:33 15° S 17:15:44 10° S
ISS -0.8 17:16:07 11° SSE 17:16:07 11° SSE 17:16:22 10° SSE
SMAP 4.1 17:12:00 10° NE 17:16:26 44° ESE 17:20:55 10° S
Cosmos 773 Rocket 3.9 17:17:04 10° NNW 17:22:17 87° WSW 17:27:39 10° SSE
Cosmos 1727 Rocket 4.0 17:16:25 10° N 17:22:48 86° E 17:29:16 10° S
Cosmos 2333 Rocket 3.6 17:25:10 23° SSW 17:25:10 23° SSW 17:27:55 10° S
Cosmos 2150 Rocket 3.8 17:24:14 43° SSW 17:26:01 81° WNW 17:31:11 10° NNE
Cosmos 2228 2.8 17:23:22 10° N 17:27:42 85° W 17:32:03 10° S
Cosmos 1602 Rocket 4.0 17:24:24 14° S 17:28:04 59° E 17:32:22 10° NNE
ATLAS 3B R/B 4.4 17:26:55 10° SSW 17:31:30 21° SE 17:36:04 10° E
DMSP B5D2-2 4.1 17:30:44 10° S 17:35:51 53° WSW 17:40:56 10° NNW
Cosmos 2278 Rocket 3.5 17:30:37 10° S 17:35:58 39° ESE 17:41:16 10° NE
Cosmos 1758 Rocket 3.5 17:33:31 19° S 17:36:43 87° E 17:41:11 10° N
Lacrosse 5 3.1 17:36:39 21° SSW 17:39:22 34° SE 17:44:01 10° E
Meteor 1-27 4.5 17:35:30 10° N 17:41:16 74° E 17:47:01 10° SSE
SWARM A 4.3 17:40:53 31° S 17:42:31 85° W 17:46:06 10° N
Lacrosse 5 rocket 1.1 17:47:38 50° SSW 17:47:38 50° SSW 17:50:59 10° SE
Cosmos 1459 Rocket 4.0 17:43:20 10° S 17:49:31 79° E 17:55:35 10° N
Spot 4 Rocket 4.2 17:44:41 10° N 17:49:40 49° W 17:53:04 20° SSW
SJ-7 4.3 17:46:29 10° N 17:50:31 73° W 17:53:29 18° SSW
CORIOLIS 4.1 17:47:24 10° NNE 17:52:46 83° WNW 17:58:13 10° SSW
Meteor 1-31 Rocket 3.7 17:49:38 10° NNE 17:53:14 46° ESE 17:56:54 10° S
SWAS 4.3 17:51:15 29° SSW 17:53:19 78° WNW 17:57:28 10° NNE
OAO 2 Rocket 4.3 17:51:26 24° WNW 17:53:36 34° NNW 17:58:03 10° NE
Cosmos 2298 Rocket 4.4 17:52:38 28° SW 17:54:54 43° WNW 17:59:53 10° N
ATLAS 5 CENTAUR R/B 2.0 17:56:13 27° SW 17:58:47 52° WNW 18:03:03 10° NNE
Cosmos 1802 Rocket 4.2 17:54:04 10° S 18:00:18 74° E 18:06:31 10° NNE
Cosmos 2219 Rocket 3.1 18:00:13 25° WSW 18:00:44 26° SW 18:05:27 10° S
COSMO-SKYMED 1 3.7 17:59:51 10° SSE 18:04:07 46° E 18:08:20 10° N
PSLV R/B 4.2 18:01:03 10° NNW 18:04:55 33° W 18:06:30 25° WSW
Cosmos 2016 Rocket 4.3 17:58:57 10° S 18:05:09 67° E 18:11:14 10° NNE
Cosmos 2322 4.2 18:01:34 10° NW 18:06:48 37° WSW 18:12:05 10° S
Cosmos 1626 Rocket 4.5 18:07:30 26° WSW 18:08:13 27° W 18:11:56 10° NNW
Cosmos 1000 Rocket 4.5 18:02:15 10° NNW 18:08:25 61° W 18:14:36 10° S
AQUARIUS 4.1 18:04:02 10° N 18:08:30 73° WNW 18:13:03 10° SSW
Helios 1B rocket 2.6 18:04:50 10° NNE 18:08:43 69° ESE 18:12:41 10° S
DNEPR-1 R/B 3.8 18:08:39 10° NNW 18:12:43 66° ENE 18:17:01 10° SE
Cosmos 1812 4.2 18:09:42 10° NNE 18:13:03 37° E 18:16:27 10° SSE
Cosmos 2360 Rocket 4.1 18:15:09 11° SW 18:15:09 11° SW 18:16:07 10° SSW
ATLAS 2AS CENTAUR R/B 2.6 18:07:36 10° NW 18:14:17 74° SW 18:21:20 10° SSE
USA 234 3.8 18:08:05 10° SE 18:14:39 63° NE 18:21:10 10° NW
Iridium 4 Rocket 4.1 18:14:39 10° NW 18:19:01 33° W 18:23:47 10° SSW
Cosmos 1538 Rocket 4.3 18:14:35 10° N 18:19:53 75° ENE 18:25:17 10° SSE
JB-3 4.2 18:16:56 10° S 18:20:41 61° WSW 18:24:24 10° NNW
Cosmos 2151 3.6 18:16:45 10° S 18:21:01 58° E 18:25:12 10° NNE
Meteor 2-3 Rocket 4.4 18:18:20 10° SSW 18:23:19 33° W 18:28:18 10° NNW
Cosmos 1271 Rocket 3.1 18:20:20 10° SSW 18:23:59 40° W 18:27:33 10° NNW
USA 59 Rocket 3.6 18:20:02 10° SW 18:27:13 20° S 18:33:44 10° SE
USA 276 3.3 18:27:39 15° SW 18:29:49 32° SSE 18:32:38 10° E
NOSS 3-1 (C) 3.2 18:23:33 10° SW 18:29:53 88° ESE 18:34:58 10° NE
ATLAS 5 CENTAUR R/B 4.3 18:26:42 15° WSW 18:31:19 47° NW 18:50:19 10° NNE
Cosmos 2061 Rocket 4.2 18:25:37 10° S 18:32:08 81° E 18:38:35 10° N
Cosmos 2237 Rocket 2.1 18:26:35 10° NNW 18:32:12 71° WSW 18:37:53 10° SSE
COSMOS 2428 3.5 18:27:15 10° WNW 18:32:16 30° SW 18:37:21 10° S
Cosmos 1943 Rocket 2.6 18:27:21 10° SSW 18:32:55 65° ESE 18:38:26 10° NNE
Cosmos 2233 Rocket 4.2 18:27:27 10° S 18:33:41 75° E 18:39:50 10° NNE
CZ-4B R/B 3.9 18:30:45 10° N 18:34:22 52° W 18:38:12 10° SSW
SL-8 R/B 3.8 18:29:46 10° NW 18:34:37 81° NNE 18:39:29 10° ESE
NOSS 3-1 (A) 4.1 18:29:07 10° SSW 18:35:22 48° SE 18:40:26 10° ENE
Cosmos 1238 Rocket 2.4 18:37:42 10° N 18:40:43 71° E 18:43:42 10° SSE
Cosmos 1980 3.8 18:36:28 10° NW 18:42:03 56° WSW 18:47:42 10° SSE
SL-08 R/B 4.4 18:42:24 10° SSE 18:46:57 49° E 18:51:29 10° N
Cosmos 1666 3.4 18:47:06 10° SSW 18:50:11 28° W 18:53:15 10° NNW
Gbstr 26 Del rocket 4.5 18:45:56 10° WSW 18:50:22 34° NW 18:55:40 10° NNE
Cosmos 1076 Rocket 3.6 18:46:57 10° S 18:51:21 86° E 18:55:41 10° N
Cosmos 1953 Rocket 3.6 18:47:37 10° SSW 18:52:01 59° W 18:56:19 10° N
SKYMED 2 3.8 18:47:51 10° S 18:52:08 50° WSW 18:56:22 10° NNW
ISS -1.9 18:49:36 10° SSW 18:52:18 21° SSE 18:54:59 10° ESE
Geosat 4.2 18:47:35 10° SSE 18:52:28 50° WSW 18:57:19 10° NW
SMAP 4.5 18:50:41 10° NW 18:53:58 19° W 18:57:18 10° SW
YAOGAN 1 3.0 18:49:40 10° NNE 18:53:58 69° ESE 18:58:19 10° S
SL-24 R/B - RUBIN 2 3.6 18:50:52 10° NW 18:55:38 75° SW 19:00:00 10° SSE
Cosmos 2123 Rocket 4.5 18:50:06 10° NW 18:55:53 39° WSW 19:01:47 10° S
CZ-2C R/B 4.0 18:55:23 10° NW 18:58:14 21° W 19:01:09 10° SW
Cosmos 1782 4.2 18:54:58 10° NNE 18:58:38 42° E 19:02:21 10° SSE
ADEOS Rocket 3.2 18:55:08 10° N 19:01:50 71° WNW 19:07:56 10° SSW
